Content
SEND FEEDBACK

Daily
Averages
Monthly
Summary
United States of America

EL PASO, TEXAS


Home > North America > United States > Texas
Elevation: 3918 feet     Latitude: 31 48N     Longitude: 106 24W

WEATHER
 
SELECT A DAY
Number of Records: 172,110;   Date Range: 1/1/95 - 8/30/14
 
SHARE

PRINT THIS DATA

[ ← Previous Day ]
WEATHER ALMANAC - SEPTEMBER 8, 2013
[ Next Day → ]
[ °C ]   °F
Weather ElementAverageHighLow
Temperature82.9 °F91.9 °F (3:51 pm)73 °F (5:51 am)
Dewpoint50.4 °F55.9 °F (7:51 am)44.1 °F (6:51 pm)
Humidity34 %51 % (5:51 am)21 % (3:51 pm)
Barometer29.75 in29.84 in (8:51 am)29.65 in (4:51 pm)
Wind Speed8.2 mph16.1 mph (5:51 pm)
Wind Gust19.6 mph (5:51 pm)
Weather ElementAverage
Visibility10 mi
Wind DirectionE (87.8 °)

Weather ElementTotal
Precipitation---
Cooling Degree Days17.5 (Base 65)
Growing Degree Days32.5 (Base 50)
Averaged from 23 records on September 8, 2013
WEATHER CONDITIONS BREAKOUT
WIND DIRECTION BREAKOUT
WEATHER BY HOUR - SEPTEMBER 8, 2013
[ °C ]   °F
Local TimeTemperatureDewpointHumidityBarometerVisibilityWind DirectionWind SpeedGust SpeedPrecipitationEventsConditions
1:51 AM80.1 °F52.0 °F38 %29.80 in10.0 miESE (110°)10.4 mphScattered Clouds
2:51 AM78.1 °F52.0 °F40 %29.79 in10.0 miESE (120°)8.1 mphMostly Cloudy
3:51 AM77.0 °F53.1 °F43 %29.79 in10.0 miSE (130°)3.5 mphMostly Cloudy
4:51 AM75.0 °F54.0 °F48 %29.79 in10.0 miCalmOvercast
5:51 AM73.0 °F54.0 °F51 %29.81 in10.0 miSSW (210°)4.6 mphMostly Cloudy
6:51 AM75.0 °F54.0 °F48 %29.82 in10.0 miCalmScattered Clouds
7:51 AM75.0 °F55.9 °F51 %29.83 in10.0 miCalmScattered Clouds
8:51 AM78.1 °F54.0 °F43 %29.84 in10.0 miVariable3.5 mphScattered Clouds
9:51 AM79.0 °F54.0 °F42 %29.84 in10.0 miCalmScattered Clouds
10:51 AM82.9 °F54.0 °F37 %29.82 in10.0 miVariable5.8 mphScattered Clouds
11:51 AM87.1 °F52.0 °F30 %29.79 in10.0 miSE (130°)11.5 mph18.4 mphScattered Clouds
12:51 PM89.1 °F48.0 °F24 %29.77 in10.0 miEast (90°)11.5 mph18.4 mphScattered Clouds
1:51 PM90.0 °F48.9 °F24 %29.74 in10.0 miENE (70°)10.4 mphScattered Clouds
2:51 PM91.0 °F48.0 °F23 %29.70 in10.0 miSE (130°)9.2 mphScattered Clouds
3:51 PM91.9 °F46.0 °F21 %29.67 in10.0 miESE (120°)11.5 mphScattered Clouds
4:51 PM91.9 °F46.9 °F21 %29.65 in10.0 miSE (140°)11.5 mphScattered Clouds
5:51 PM90.0 °F45.0 °F21 %29.66 in10.0 miESE (120°)16.1 mph19.6 mphScattered Clouds
6:51 PM88.0 °F44.1 °F22 %29.67 in10.0 miEast (90°)10.4 mphScattered Clouds
7:51 PM86.0 °F44.1 °F23 %29.68 in10.0 miEast (90°)9.2 mphScattered Clouds
8:51 PM84.9 °F46.9 °F27 %29.70 in10.0 miESE (110°)12.7 mphScattered Clouds
9:51 PM82.9 °F48.9 °F31 %29.72 in10.0 miESE (120°)11.5 mphScattered Clouds
10:51 PM81.0 °F51.1 °F35 %29.73 in10.0 miESE (120°)12.7 mph19.6 mphScattered Clouds
11:51 PM80.1 °F53.1 °F39 %29.72 in10.0 miESE (120°)15.0 mphScattered Clouds
Hourly data recorded from KELP, located miles away from El Paso, Texas







STORIES FROM OUR PARTNERS